BAW2313 HKJK-OTHH

Flight info

Callsign BAW2313
Flight time 4h 53m
Altitude 39000
Route ATUDU1D WAV UP312 MAV UB403 BOMIX B403 RIGAM B400 DAXAM Y414 DEDSO L425 GOBRO DCT METNO DCT OBSEP DCT LADBO T142 LAEEB
Aircraft A35K/H-SDE2E3GHIJ1J3J4J5LM1ORWXY/LB1D1

Departure

Time 2026-05-05 10:51
Airport Jomo Kenyatta International Airport (HKJK)

Arrival

Time 2026-05-05 15:45
Airport Hamad International Airport (OTHH)
Time Latitude Longitude Altitude Speed Heading
2026-05-05 10:38 -1.32918 36.92657 5336 ft 0 kts 229°
2026-05-05 10:44 -1.32905 36.92672 5339 ft 4 kts 229°
2026-05-05 10:44 -1.32888 36.92692 5336 ft 4 kts 229°
2026-05-05 10:44 -1.32874 36.92710 5335 ft 4 kts 263°
2026-05-05 10:44 -1.32881 36.92730 5334 ft 4 kts 320°
2026-05-05 10:45 -1.32897 36.92742 5336 ft 0 kts 322°
2026-05-05 10:47 -1.32890 36.92736 5335 ft 3 kts 321°
2026-05-05 10:47 -1.32830 36.92678 5336 ft 16 kts 309°
2026-05-05 10:47 -1.32779 36.92577 5335 ft 17 kts 287°
2026-05-05 10:47 -1.32769 36.92460 5334 ft 17 kts 269°
2026-05-05 10:48 -1.32705 36.92363 5336 ft 17 kts 312°
2026-05-05 10:48 -1.32714 36.92258 5337 ft 16 kts 237°
2026-05-05 10:48 -1.32779 36.92165 5338 ft 16 kts 234°
2026-05-05 10:48 -1.32848 36.92074 5338 ft 17 kts 233°
2026-05-05 10:49 -1.32897 36.91971 5341 ft 16 kts 265°
2026-05-05 10:49 -1.32886 36.91871 5341 ft 14 kts 279°
2026-05-05 10:49 -1.32875 36.91776 5345 ft 14 kts 277°
2026-05-05 10:49 -1.32822 36.91695 5346 ft 15 kts 319°
2026-05-05 10:50 -1.32741 36.91679 5344 ft 12 kts 27°
2026-05-05 10:50 -1.32706 36.91712 5343 ft 0 kts 51°
2026-05-05 10:50 -1.32703 36.91716 5343 ft 10 kts 51°
2026-05-05 10:51 -1.32500 36.91992 5334 ft 86 kts 54°
2026-05-05 10:51 -1.32015 36.92656 5315 ft 149 kts 53°
2026-05-05 10:51 -1.31310 36.93614 5622 ft 176 kts 54°
2026-05-05 10:51 -1.30613 36.94556 6522 ft 174 kts 53°
2026-05-05 10:52 -1.30198 36.95746 6803 ft 194 kts 90°
2026-05-05 10:52 -1.30215 36.97178 7041 ft 219 kts 91°
2026-05-05 10:52 -1.30179 36.98790 7255 ft 247 kts 88°
2026-05-05 10:52 -1.30024 37.00585 7539 ft 270 kts 84°
2026-05-05 10:53 -1.29787 37.02489 8173 ft 279 kts 83°
2026-05-05 10:53 -1.29514 37.04422 8990 ft 283 kts 82°
2026-05-05 10:53 -1.29225 37.06388 9772 ft 289 kts 81°
2026-05-05 10:53 -1.28924 37.08382 10528 ft 293 kts 81°
2026-05-05 10:54 -1.28608 37.10450 11005 ft 311 kts 80°
2026-05-05 10:54 -1.28256 37.12670 11178 ft 337 kts 79°
2026-05-05 10:54 -1.27560 37.14984 11197 ft 357 kts 63°
2026-05-05 10:54 -1.26113 37.17025 11394 ft 367 kts 46°
2026-05-05 10:55 -1.24290 37.18820 12125 ft 367 kts 43°
2026-05-05 10:55 -1.22445 37.20584 12958 ft 368 kts 43°
2026-05-05 10:55 -1.20588 37.22366 13639 ft 372 kts 42°
2026-05-05 10:55 -1.18719 37.24166 14282 ft 375 kts 42°
2026-05-05 10:56 -1.16834 37.25986 14873 ft 378 kts 42°
2026-05-05 10:56 -1.14940 37.27816 15516 ft 379 kts 43°
2026-05-05 10:56 -1.13033 37.29660 16069 ft 384 kts 43°
2026-05-05 10:56 -1.11109 37.31523 16698 ft 386 kts 43°
2026-05-05 10:57 -1.09167 37.33402 17202 ft 391 kts 44°
2026-05-05 10:57 -1.07236 37.35272 17772 ft 393 kts 44°
2026-05-05 10:57 -1.05266 37.37181 18344 ft 397 kts 44°
2026-05-05 10:57 -1.03274 37.39110 18820 ft 400 kts 44°
2026-05-05 10:58 -1.01270 37.41050 19299 ft 404 kts 44°
2026-05-05 10:58 -0.99241 37.43015 19749 ft 407 kts 45°
2026-05-05 10:58 -0.97205 37.44986 20260 ft 409 kts 44°
2026-05-05 10:58 -0.95141 37.46984 20666 ft 413 kts 45°
2026-05-05 10:59 -0.93071 37.48990 21157 ft 417 kts 44°
2026-05-05 10:59 -0.90976 37.51017 21623 ft 420 kts 45°
2026-05-05 10:59 -0.88867 37.53060 22065 ft 425 kts 45°
2026-05-05 10:59 -0.86732 37.55127 22486 ft 429 kts 45°
2026-05-05 11:00 -0.84603 37.57189 22962 ft 432 kts 45°
2026-05-05 11:00 -0.82434 37.59288 23453 ft 435 kts 45°
2026-05-05 11:00 -0.80251 37.61403 23875 ft 439 kts 45°
2026-05-05 11:00 -0.78043 37.63540 24261 ft 442 kts 45°
2026-05-05 11:01 -0.75831 37.65681 24641 ft 445 kts 45°
2026-05-05 11:01 -0.73593 37.67848 25067 ft 448 kts 45°
2026-05-05 11:01 -0.71344 37.70025 25491 ft 452 kts 45°
2026-05-05 11:01 -0.69077 37.72219 25942 ft 455 kts 45°
2026-05-05 11:02 -0.66827 37.74399 26384 ft 459 kts 45°
2026-05-05 11:02 -0.64528 37.76623 26886 ft 462 kts 45°
2026-05-05 11:02 -0.62179 37.78898 27355 ft 466 kts 45°
2026-05-05 11:02 -0.59874 37.81128 27829 ft 469 kts 45°
2026-05-05 11:03 -0.57519 37.83408 28255 ft 473 kts 45°
2026-05-05 11:03 -0.55149 37.85703 28715 ft 477 kts 44°
2026-05-05 11:03 -0.52758 37.88017 29188 ft 480 kts 45°
2026-05-05 11:03 -0.50349 37.90349 29632 ft 484 kts 45°
2026-05-05 11:04 -0.47923 37.92697 30039 ft 487 kts 45°
2026-05-05 11:04 -0.45473 37.95068 30401 ft 491 kts 45°
2026-05-05 11:04 -0.43017 37.97446 30821 ft 492 kts 44°
2026-05-05 11:04 -0.40553 37.99831 31200 ft 494 kts 44°
2026-05-05 11:05 -0.38916 38.01415 31447 ft 495 kts 44°
2026-05-05 11:05 -0.36438 38.03813 31787 ft 498 kts 44°
2026-05-05 11:05 -0.33101 38.07043 32239 ft 501 kts 44°
2026-05-05 11:05 -0.31440 38.08650 32460 ft 502 kts 44°
2026-05-05 11:06 -0.28939 38.11072 32923 ft 500 kts 44°
2026-05-05 11:06 -0.26444 38.13487 33462 ft 497 kts 44°
2026-05-05 11:06 -0.23962 38.15889 33956 ft 496 kts 44°
2026-05-05 11:06 -0.21492 38.18280 34381 ft 493 kts 44°
2026-05-05 11:07 -0.19027 38.20666 34750 ft 492 kts 44°
2026-05-05 11:07 -0.16570 38.23044 35175 ft 491 kts 44°
2026-05-05 11:07 -0.14124 38.25411 35563 ft 489 kts 44°
2026-05-05 11:07 -0.11687 38.27770 35952 ft 487 kts 44°
2026-05-05 11:08 -0.09257 38.30122 36331 ft 485 kts 44°
2026-05-05 11:08 -0.06834 38.32468 36669 ft 485 kts 44°
2026-05-05 11:08 -0.04446 38.34779 37058 ft 483 kts 44°
2026-05-05 11:08 -0.02032 38.37115 37365 ft 482 kts 44°
2026-05-05 11:09 0.00371 38.39442 37744 ft 480 kts 44°
2026-05-05 11:09 0.02774 38.41768 38022 ft 480 kts 44°
2026-05-05 11:09 0.05167 38.44083 38367 ft 478 kts 44°
2026-05-05 11:09 0.07552 38.46392 38691 ft 476 kts 44°
2026-05-05 11:10 0.09930 38.48694 38884 ft 477 kts 44°
2026-05-05 11:10 0.14731 38.53340 38920 ft 480 kts 44°
2026-05-05 11:11 0.19492 38.57949 38917 ft 480 kts 44°
2026-05-05 11:11 0.24288 38.62591 38904 ft 480 kts 44°
2026-05-05 11:12 0.29090 38.67239 38895 ft 480 kts 44°
2026-05-05 11:12 0.33879 38.71874 38893 ft 479 kts 44°
2026-05-05 11:13 0.38672 38.76514 38894 ft 480 kts 44°
2026-05-05 11:13 0.43468 38.81156 38894 ft 480 kts 44°
2026-05-05 11:14 0.48259 38.85794 38895 ft 480 kts 44°
2026-05-05 11:14 0.53055 38.90435 38891 ft 480 kts 44°
2026-05-05 11:15 0.57820 38.95049 38886 ft 480 kts 44°
2026-05-05 11:15 0.62612 38.99687 38885 ft 479 kts 44°
2026-05-05 11:16 0.67392 39.04315 38875 ft 478 kts 44°
2026-05-05 11:16 0.72171 39.08942 38874 ft 478 kts 44°
2026-05-05 11:17 0.76950 39.13569 38873 ft 478 kts 44°
2026-05-05 11:17 0.81733 39.18200 38872 ft 478 kts 44°
2026-05-05 11:18 0.86507 39.22821 38869 ft 478 kts 44°
2026-05-05 11:18 0.91282 39.27445 38875 ft 478 kts 44°
2026-05-05 11:19 0.96052 39.32063 38875 ft 477 kts 44°
2026-05-05 11:19 1.00815 39.36676 38874 ft 477 kts 44°
2026-05-05 11:20 1.05586 39.41296 38870 ft 478 kts 44°
2026-05-05 11:20 1.10359 39.45918 38870 ft 477 kts 44°
2026-05-05 11:21 1.15099 39.50508 38881 ft 477 kts 44°
2026-05-05 11:21 1.19870 39.55129 38883 ft 477 kts 44°
2026-05-05 11:22 1.24635 39.59744 38880 ft 477 kts 44°
2026-05-05 11:22 1.29408 39.64368 38888 ft 478 kts 44°
2026-05-05 11:23 1.34184 39.68994 38882 ft 478 kts 44°
2026-05-05 11:23 1.38959 39.73619 38885 ft 478 kts 44°
2026-05-05 11:24 1.43736 39.78247 38881 ft 478 kts 44°
2026-05-05 11:24 1.48515 39.82877 38879 ft 479 kts 44°
2026-05-05 11:25 1.53265 39.87480 38883 ft 478 kts 44°
2026-05-05 11:25 1.58046 39.92112 38884 ft 478 kts 44°
2026-05-05 11:26 1.62826 39.96743 38880 ft 478 kts 44°
2026-05-05 11:26 1.67604 40.01374 38882 ft 478 kts 44°
2026-05-05 11:27 1.72383 40.06005 38886 ft 479 kts 44°
2026-05-05 11:27 1.77361 40.10439 38893 ft 479 kts 39°
2026-05-05 11:28 1.82555 40.14615 38885 ft 479 kts 38°
2026-05-05 11:28 1.87777 40.18747 38900 ft 479 kts 38°
2026-05-05 11:29 1.92989 40.22895 38892 ft 479 kts 38°
2026-05-05 11:29 1.98200 40.27062 38902 ft 479 kts 38°
2026-05-05 11:30 2.03402 40.31230 38893 ft 479 kts 38°
2026-05-05 11:30 2.08612 40.35405 38894 ft 480 kts 38°
2026-05-05 11:31 2.13787 40.39551 38898 ft 480 kts 38°
2026-05-05 11:31 2.18999 40.43726 38899 ft 480 kts 38°
2026-05-05 11:32 2.24208 40.47900 38899 ft 480 kts 39°
2026-05-05 11:32 2.29425 40.52079 38898 ft 481 kts 39°
2026-05-05 11:33 2.34648 40.56264 38907 ft 481 kts 39°
2026-05-05 11:33 2.39874 40.60452 38897 ft 481 kts 39°
2026-05-05 11:34 2.45075 40.64671 38901 ft 481 kts 39°
2026-05-05 11:34 2.50260 40.68913 38899 ft 481 kts 39°
2026-05-05 11:35 2.55441 40.73150 38897 ft 481 kts 39°
2026-05-05 11:35 2.60629 40.77385 38897 ft 481 kts 39°
2026-05-05 11:36 2.65790 40.81596 38896 ft 481 kts 39°
2026-05-05 11:36 2.70981 40.85832 38897 ft 481 kts 39°
2026-05-05 11:37 2.76168 40.90065 38904 ft 481 kts 39°
2026-05-05 11:37 2.81354 40.94298 38895 ft 481 kts 39°
2026-05-05 11:38 2.86533 40.98526 38903 ft 480 kts 39°
2026-05-05 11:38 2.91675 41.02725 38893 ft 480 kts 39°
2026-05-05 11:39 2.96852 41.06952 38905 ft 480 kts 39°
2026-05-05 11:39 3.02031 41.11181 38904 ft 480 kts 39°
2026-05-05 11:40 3.07208 41.15409 38899 ft 480 kts 39°
2026-05-05 11:40 3.12382 41.19636 38901 ft 480 kts 39°
2026-05-05 11:41 3.17558 41.23865 38899 ft 480 kts 39°
2026-05-05 11:41 3.22733 41.28093 38897 ft 480 kts 39°
2026-05-05 11:42 3.27900 41.32315 38902 ft 480 kts 39°
2026-05-05 11:42 3.33070 41.36541 38905 ft 479 kts 39°
2026-05-05 11:43 3.38228 41.40757 38897 ft 478 kts 39°
2026-05-05 11:43 3.43377 41.44966 38892 ft 478 kts 39°
2026-05-05 11:44 3.48497 41.49153 38895 ft 479 kts 39°
2026-05-05 11:44 3.53655 41.53371 38893 ft 478 kts 39°
2026-05-05 11:45 3.58813 41.57589 38889 ft 478 kts 39°
2026-05-05 11:45 3.63965 41.61804 38888 ft 478 kts 39°
2026-05-05 11:46 3.69114 41.66017 38879 ft 478 kts 39°
2026-05-05 11:46 3.74265 41.70231 38872 ft 479 kts 39°
2026-05-05 11:47 3.79439 41.74465 38864 ft 481 kts 39°
2026-05-05 11:47 3.84587 41.78680 38876 ft 481 kts 38°
2026-05-05 11:48 3.92393 41.85073 38869 ft 484 kts 38°
2026-05-05 11:48 3.97272 41.89741 38872 ft 485 kts 44°
2026-05-05 11:49 4.01988 41.94567 38860 ft 484 kts 45°
2026-05-05 11:49 4.06673 41.99416 38870 ft 483 kts 45°
2026-05-05 11:50 4.11356 42.04257 38867 ft 484 kts 45°
2026-05-05 11:50 4.16019 42.09066 38866 ft 485 kts 45°
2026-05-05 11:51 4.20714 42.13906 38867 ft 485 kts 45°
2026-05-05 11:51 4.25412 42.18748 38863 ft 484 kts 45°
2026-05-05 11:52 4.30100 42.23582 38861 ft 483 kts 45°
2026-05-05 11:52 4.34781 42.28410 38866 ft 483 kts 45°
2026-05-05 11:53 4.39461 42.33237 38864 ft 483 kts 45°
2026-05-05 11:53 4.44144 42.38070 38864 ft 483 kts 45°
2026-05-05 11:54 4.48824 42.42899 38872 ft 483 kts 45°
2026-05-05 11:54 4.53506 42.47734 38877 ft 483 kts 44°
2026-05-05 11:55 4.57398 42.51752 38871 ft 483 kts 44°
2026-05-05 11:55 4.62082 42.56587 38872 ft 483 kts 44°
2026-05-05 11:56 4.66761 42.61419 38872 ft 483 kts 44°
2026-05-05 11:56 4.71448 42.66261 38877 ft 484 kts 44°
2026-05-05 11:57 4.76140 42.71108 38880 ft 484 kts 44°
2026-05-05 11:57 4.80855 42.75980 38881 ft 489 kts 44°
2026-05-05 11:58 4.85564 42.80847 38876 ft 490 kts 44°
2026-05-05 11:58 4.90312 42.85756 38880 ft 490 kts 44°
2026-05-05 11:59 4.95061 42.90667 38883 ft 490 kts 44°
2026-05-05 11:59 4.99809 42.95579 38879 ft 490 kts 44°
2026-05-05 12:00 5.04560 43.00494 38888 ft 490 kts 44°
2026-05-05 12:00 5.09313 43.05409 38880 ft 491 kts 44°
2026-05-05 12:01 5.14075 43.10339 38891 ft 491 kts 44°
2026-05-05 12:01 5.18830 43.15263 38888 ft 492 kts 44°
2026-05-05 12:02 5.23559 43.20159 38887 ft 492 kts 44°
2026-05-05 12:02 5.28320 43.25090 38888 ft 492 kts 44°
2026-05-05 12:03 5.33078 43.30019 38883 ft 492 kts 44°
2026-05-05 12:03 5.37848 43.34959 38883 ft 492 kts 44°
2026-05-05 12:04 5.42604 43.39891 38882 ft 492 kts 44°
2026-05-05 12:04 5.47366 43.44829 38881 ft 492 kts 44°
2026-05-05 12:05 5.52117 43.49756 38888 ft 490 kts 45°
2026-05-05 12:05 5.56851 43.54667 38876 ft 488 kts 45°
2026-05-05 12:06 5.61568 43.59563 38874 ft 487 kts 44°
2026-05-05 12:06 5.66248 43.64419 38872 ft 487 kts 44°
2026-05-05 12:07 5.70953 43.69311 38869 ft 486 kts 45°
2026-05-05 12:07 5.75647 43.74209 38865 ft 486 kts 45°
2026-05-05 12:08 5.80341 43.79102 38867 ft 486 kts 45°
2026-05-05 12:08 5.85043 43.84002 38867 ft 487 kts 45°
2026-05-05 12:09 5.89737 43.88898 38861 ft 487 kts 45°
2026-05-05 12:09 5.94436 43.93801 38870 ft 487 kts 45°
2026-05-05 12:10 5.99135 43.98703 38869 ft 487 kts 45°
2026-05-05 12:10 6.03832 44.03606 38869 ft 487 kts 44°
2026-05-05 12:11 6.08503 44.08482 38866 ft 487 kts 44°
2026-05-05 12:11 6.13210 44.13397 38869 ft 488 kts 45°
2026-05-05 12:12 6.17913 44.18310 38869 ft 488 kts 45°
2026-05-05 12:12 6.22614 44.23222 38863 ft 487 kts 45°
2026-05-05 12:13 6.27316 44.28136 38866 ft 488 kts 45°
2026-05-05 12:13 6.32018 44.33052 38869 ft 487 kts 45°
2026-05-05 12:14 6.36717 44.37966 38866 ft 487 kts 45°
2026-05-05 12:14 6.41418 44.42882 38872 ft 488 kts 45°
2026-05-05 12:15 6.46117 44.47800 38863 ft 488 kts 45°
2026-05-05 12:15 6.50817 44.52719 38868 ft 488 kts 45°
2026-05-05 12:16 6.55518 44.57641 38867 ft 488 kts 44°
2026-05-05 12:16 6.60193 44.62537 38866 ft 488 kts 45°
2026-05-05 12:17 6.64894 44.67459 38875 ft 488 kts 45°
2026-05-05 12:17 6.69600 44.72394 38875 ft 488 kts 44°
2026-05-05 12:18 6.74297 44.77324 38878 ft 488 kts 45°
2026-05-05 12:18 6.78997 44.82267 38878 ft 488 kts 45°
2026-05-05 12:19 6.83695 44.87213 38872 ft 489 kts 45°
2026-05-05 12:19 6.88395 44.92159 38875 ft 489 kts 45°
2026-05-05 12:20 6.93092 44.97105 38876 ft 489 kts 45°
2026-05-05 12:20 6.97763 45.02029 38875 ft 490 kts 45°
2026-05-05 12:21 7.02477 45.07000 38876 ft 490 kts 45°
2026-05-05 12:21 7.07189 45.11965 38870 ft 491 kts 45°
2026-05-05 12:22 7.11905 45.16937 38862 ft 490 kts 45°
2026-05-05 12:22 7.16618 45.21909 38854 ft 491 kts 45°
2026-05-05 12:23 7.21343 45.26892 38858 ft 492 kts 46°
2026-05-05 12:23 7.26064 45.31874 38850 ft 492 kts 46°
2026-05-05 12:24 7.30789 45.36861 38845 ft 492 kts 45°
2026-05-05 12:24 7.35474 45.41811 38843 ft 491 kts 45°
2026-05-05 12:25 7.40192 45.46795 38840 ft 491 kts 45°
2026-05-05 12:25 7.44910 45.51781 38841 ft 491 kts 45°
2026-05-05 12:26 7.49625 45.56765 38835 ft 491 kts 45°
2026-05-05 12:26 7.54341 45.61752 38841 ft 491 kts 45°
2026-05-05 12:27 7.59060 45.66743 38834 ft 492 kts 46°
2026-05-05 12:27 7.63779 45.71736 38830 ft 491 kts 45°
2026-05-05 12:28 7.68495 45.76728 38837 ft 491 kts 45°
2026-05-05 12:28 7.73174 45.81692 38831 ft 491 kts 46°
2026-05-05 12:29 7.77879 45.86699 38838 ft 491 kts 46°
2026-05-05 12:29 7.82571 45.91690 38831 ft 491 kts 46°
2026-05-05 12:30 7.87266 45.96685 38838 ft 491 kts 45°
2026-05-05 12:30 7.91962 46.01680 38832 ft 490 kts 46°
2026-05-05 12:31 7.96652 46.06672 38834 ft 490 kts 45°
2026-05-05 12:31 8.01313 46.11634 38824 ft 490 kts 45°
2026-05-05 12:32 8.06009 46.16634 38829 ft 491 kts 46°
2026-05-05 12:32 8.10703 46.21635 38823 ft 491 kts 46°
2026-05-05 12:33 8.15406 46.26647 38813 ft 491 kts 46°
2026-05-05 12:33 8.20110 46.31663 38818 ft 491 kts 46°
2026-05-05 12:34 8.24825 46.36668 38808 ft 491 kts 45°
2026-05-05 12:34 8.29586 46.41632 38821 ft 493 kts 45°
2026-05-05 12:35 8.34360 46.46602 38815 ft 493 kts 45°
2026-05-05 12:35 8.39095 46.51548 38825 ft 493 kts 45°
2026-05-05 12:36 8.43862 46.56536 38823 ft 493 kts 45°
2026-05-05 12:36 8.48622 46.61521 38815 ft 493 kts 45°
2026-05-05 12:37 8.53382 46.66507 38818 ft 493 kts 45°
2026-05-05 12:37 8.58144 46.71498 38818 ft 493 kts 45°
2026-05-05 12:38 8.62900 46.76484 38806 ft 493 kts 45°
2026-05-05 12:38 8.67657 46.81472 38803 ft 493 kts 45°
2026-05-05 12:39 8.72416 46.86464 38811 ft 493 kts 45°
2026-05-05 12:39 8.77172 46.91456 38798 ft 493 kts 46°
2026-05-05 12:40 8.81899 46.96419 38794 ft 493 kts 46°
2026-05-05 12:40 8.86662 47.01421 38803 ft 493 kts 46°
2026-05-05 12:41 8.91418 47.06419 38800 ft 493 kts 46°
2026-05-05 12:41 8.96177 47.11420 38792 ft 493 kts 46°
2026-05-05 12:42 9.00934 47.16423 38796 ft 493 kts 46°
2026-05-05 12:42 9.05696 47.21432 38794 ft 493 kts 46°
2026-05-05 12:43 9.10414 47.26398 38793 ft 492 kts 46°
2026-05-05 12:43 9.15164 47.31399 38802 ft 492 kts 46°
2026-05-05 12:44 9.19908 47.36395 38802 ft 492 kts 46°
2026-05-05 12:44 9.24744 47.41301 38808 ft 492 kts 44°
2026-05-05 12:45 9.28807 47.45336 38808 ft 492 kts 44°
2026-05-05 12:45 9.33685 47.50199 38813 ft 492 kts 45°
2026-05-05 12:46 9.38549 47.55080 38816 ft 492 kts 45°
2026-05-05 12:46 9.43407 47.59969 38821 ft 492 kts 45°
2026-05-05 12:47 9.48261 47.64857 38833 ft 492 kts 45°
2026-05-05 12:47 9.53115 47.69747 38827 ft 492 kts 45°
2026-05-05 12:48 9.57970 47.74639 38834 ft 492 kts 45°
2026-05-05 12:48 9.62828 47.79535 38828 ft 492 kts 45°
2026-05-05 12:49 9.67649 47.84396 38826 ft 492 kts 45°
2026-05-05 12:49 9.72500 47.89289 38838 ft 492 kts 45°
2026-05-05 12:50 9.77353 47.94187 38843 ft 492 kts 45°
2026-05-05 12:50 9.82204 47.99085 38831 ft 492 kts 45°
2026-05-05 12:51 9.87058 48.03988 38842 ft 492 kts 45°
2026-05-05 12:51 9.91909 48.08891 38833 ft 492 kts 45°
2026-05-05 12:52 9.96764 48.13799 38835 ft 492 kts 45°
2026-05-05 12:52 10.01618 48.18708 38833 ft 492 kts 45°
2026-05-05 12:53 10.06440 48.23587 38829 ft 492 kts 45°
2026-05-05 12:53 10.11291 48.28498 38827 ft 493 kts 45°
2026-05-05 12:54 10.18573 48.35875 38823 ft 493 kts 45°
2026-05-05 12:55 10.23429 48.40796 38830 ft 493 kts 45°
2026-05-05 12:55 10.28290 48.45726 38827 ft 493 kts 45°
2026-05-05 12:56 10.33116 48.50621 38818 ft 494 kts 45°
2026-05-05 12:56 10.37980 48.55557 38813 ft 494 kts 45°
2026-05-05 12:57 10.42840 48.60492 38815 ft 494 kts 45°
2026-05-05 12:57 10.47700 48.65429 38807 ft 494 kts 45°
2026-05-05 12:58 10.52558 48.70367 38814 ft 494 kts 45°
2026-05-05 12:58 10.57419 48.75309 38818 ft 494 kts 45°
2026-05-05 12:59 10.62280 48.80254 38812 ft 494 kts 45°
2026-05-05 12:59 10.67140 48.85200 38813 ft 494 kts 45°
2026-05-05 13:00 10.74404 48.92599 38821 ft 495 kts 45°
2026-05-05 13:01 10.84133 49.02514 38811 ft 495 kts 45°
2026-05-05 13:01 10.88993 49.07472 38816 ft 495 kts 45°
2026-05-05 13:02 10.93855 49.12433 38808 ft 495 kts 45°
2026-05-05 13:02 10.98722 49.17403 38815 ft 495 kts 45°
2026-05-05 13:03 11.03589 49.22374 38814 ft 495 kts 45°
2026-05-05 13:03 11.08451 49.27343 38822 ft 495 kts 45°
2026-05-05 13:04 11.13312 49.32313 38817 ft 495 kts 45°
2026-05-05 13:04 11.18174 49.37288 38824 ft 496 kts 45°
2026-05-05 13:05 11.23017 49.42244 38811 ft 496 kts 45°
2026-05-05 13:05 11.27889 49.47234 38807 ft 497 kts 45°
2026-05-05 13:06 11.32764 49.52229 38822 ft 497 kts 45°
2026-05-05 13:06 11.37636 49.57224 38809 ft 496 kts 45°
2026-05-05 13:07 11.42439 49.62274 38811 ft 496 kts 47°
2026-05-05 13:07 11.47038 49.67520 38814 ft 496 kts 49°
2026-05-05 13:08 11.51614 49.72787 38790 ft 496 kts 48°
2026-05-05 13:08 11.56194 49.77996 38793 ft 496 kts 48°
2026-05-05 13:09 11.60824 49.83228 38791 ft 496 kts 48°
2026-05-05 13:09 11.65453 49.88454 38792 ft 496 kts 48°
2026-05-05 13:10 11.70080 49.93682 38792 ft 496 kts 48°
2026-05-05 13:10 11.74700 49.98907 38794 ft 496 kts 48°
2026-05-05 13:11 11.79325 50.04142 38784 ft 496 kts 48°
2026-05-05 13:11 11.83951 50.09380 38789 ft 496 kts 48°
2026-05-05 13:12 11.88537 50.14575 38786 ft 496 kts 48°
2026-05-05 13:12 11.93153 50.19808 38789 ft 496 kts 48°
2026-05-05 13:13 11.97767 50.25042 38789 ft 496 kts 48°
2026-05-05 13:13 12.02381 50.30278 38788 ft 496 kts 48°
2026-05-05 13:14 12.06997 50.35519 38790 ft 496 kts 48°
2026-05-05 13:14 12.11612 50.40763 38792 ft 496 kts 48°
2026-05-05 13:15 12.16219 50.46000 38787 ft 496 kts 48°
2026-05-05 13:15 12.20908 50.51113 38788 ft 496 kts 45°
2026-05-05 13:16 12.25799 50.56097 38786 ft 496 kts 45°
2026-05-05 13:16 12.30692 50.61090 38791 ft 496 kts 45°
2026-05-05 13:17 12.35551 50.66109 38788 ft 496 kts 45°
2026-05-05 13:17 12.40405 50.71155 38792 ft 497 kts 45°
2026-05-05 13:18 12.45248 50.76196 38792 ft 497 kts 45°
2026-05-05 13:18 12.50094 50.81241 38797 ft 497 kts 45°
2026-05-05 13:19 12.54911 50.86256 38793 ft 497 kts 45°
2026-05-05 13:19 12.59770 50.91319 38796 ft 498 kts 45°
2026-05-05 13:20 12.64629 50.96387 38800 ft 498 kts 45°
2026-05-05 13:20 12.69485 51.01455 38796 ft 498 kts 45°
2026-05-05 13:21 12.74341 51.06519 38806 ft 498 kts 45°
2026-05-05 13:21 12.79195 51.11586 38804 ft 498 kts 45°
2026-05-05 13:22 12.84049 51.16658 38804 ft 498 kts 45°
2026-05-05 13:22 12.88902 51.21732 38801 ft 498 kts 45°
2026-05-05 13:23 12.93721 51.26773 38801 ft 497 kts 45°
2026-05-05 13:23 12.98561 51.31839 38801 ft 497 kts 45°
2026-05-05 13:24 13.03399 51.36906 38803 ft 498 kts 45°
2026-05-05 13:24 13.08247 51.41988 38804 ft 498 kts 45°
2026-05-05 13:25 13.13095 51.47071 38804 ft 498 kts 45°
2026-05-05 13:25 13.17943 51.52158 38803 ft 498 kts 45°
2026-05-05 13:26 13.22758 51.57214 38807 ft 498 kts 45°
2026-05-05 13:26 13.27599 51.62299 38806 ft 497 kts 45°
2026-05-05 13:27 13.32424 51.67371 38805 ft 496 kts 45°
2026-05-05 13:27 13.37248 51.72445 38806 ft 496 kts 45°
2026-05-05 13:28 13.42071 51.77521 38806 ft 496 kts 45°
2026-05-05 13:28 13.46894 51.82600 38808 ft 497 kts 45°
2026-05-05 13:29 13.51691 51.87655 38809 ft 496 kts 45°
2026-05-05 13:29 13.56512 51.92737 38808 ft 496 kts 45°
2026-05-05 13:30 13.61365 51.97781 38800 ft 495 kts 45°
2026-05-05 13:30 13.66221 52.02803 38809 ft 494 kts 45°
2026-05-05 13:31 13.71065 52.07827 38809 ft 495 kts 45°
2026-05-05 13:31 13.75914 52.12869 38805 ft 495 kts 45°
2026-05-05 13:32 13.80757 52.17910 38807 ft 495 kts 45°
2026-05-05 13:32 13.85567 52.22920 38807 ft 495 kts 45°
2026-05-05 13:33 13.90406 52.27962 38806 ft 495 kts 45°
2026-05-05 13:33 13.95242 52.33006 38809 ft 495 kts 45°
2026-05-05 13:34 14.00078 52.38051 38805 ft 494 kts 45°
2026-05-05 13:34 14.04089 52.42239 38806 ft 494 kts 45°
2026-05-05 13:35 14.08925 52.47291 38806 ft 494 kts 45°
2026-05-05 13:35 14.14539 52.53159 38803 ft 494 kts 45°
2026-05-05 13:36 14.18584 52.57390 38806 ft 494 kts 45°
2026-05-05 13:36 14.23382 52.62412 38806 ft 494 kts 45°
2026-05-05 13:37 14.28209 52.67468 38801 ft 494 kts 45°
2026-05-05 13:37 14.33028 52.72518 38806 ft 493 kts 45°
2026-05-05 13:38 14.37835 52.77559 38806 ft 493 kts 45°
2026-05-05 13:38 14.42642 52.82603 38806 ft 493 kts 45°
2026-05-05 13:39 14.47447 52.87649 38806 ft 493 kts 45°
2026-05-05 13:39 14.52255 52.92701 38806 ft 493 kts 45°
2026-05-05 13:40 14.57064 52.97757 38800 ft 493 kts 45°
2026-05-05 13:40 14.61834 53.02776 38799 ft 493 kts 45°
2026-05-05 13:41 14.66896 53.07520 38801 ft 491 kts 34°
2026-05-05 13:41 14.72608 53.11386 38802 ft 491 kts 32°
2026-05-05 13:42 14.78427 53.15087 38799 ft 491 kts 31°
2026-05-05 13:42 14.84259 53.18769 38798 ft 491 kts 31°
2026-05-05 13:43 14.90082 53.22467 38802 ft 491 kts 31°
2026-05-05 13:43 14.95899 53.26178 38801 ft 491 kts 31°
2026-05-05 13:44 15.01699 53.29884 38802 ft 490 kts 31°
2026-05-05 13:44 15.07494 53.33590 38802 ft 490 kts 31°
2026-05-05 13:45 15.13292 53.37299 38799 ft 489 kts 31°
2026-05-05 13:45 15.19083 53.41005 38799 ft 489 kts 31°
2026-05-05 13:46 15.24877 53.44715 38799 ft 489 kts 31°
2026-05-05 13:46 15.30633 53.48404 38798 ft 489 kts 31°
2026-05-05 13:47 15.36427 53.52120 38799 ft 489 kts 31°
2026-05-05 13:47 15.42213 53.55833 38801 ft 490 kts 32°
2026-05-05 13:48 15.47987 53.59590 38799 ft 489 kts 32°
2026-05-05 13:48 15.53702 53.63419 38799 ft 489 kts 33°
2026-05-05 13:49 15.59415 53.67253 38797 ft 489 kts 33°
2026-05-05 13:49 15.65141 53.71082 38796 ft 489 kts 32°
2026-05-05 13:50 15.70871 53.74908 38794 ft 489 kts 32°
2026-05-05 13:50 15.76563 53.78708 38794 ft 489 kts 32°
2026-05-05 13:51 15.82324 53.82558 38797 ft 489 kts 32°
2026-05-05 13:51 15.88013 53.86363 38799 ft 489 kts 32°
2026-05-05 13:52 15.93751 53.90174 38799 ft 489 kts 32°
2026-05-05 13:52 15.99521 53.93966 38796 ft 491 kts 32°
2026-05-05 13:53 16.05298 53.97768 38799 ft 491 kts 32°
2026-05-05 13:53 16.11072 54.01579 38798 ft 491 kts 32°
2026-05-05 13:54 16.16798 54.05366 38798 ft 491 kts 32°
2026-05-05 13:54 16.22567 54.09184 38799 ft 491 kts 32°
2026-05-05 13:55 16.28331 54.13001 38796 ft 491 kts 32°
2026-05-05 13:55 16.34096 54.16820 38796 ft 491 kts 31°
2026-05-05 13:56 16.39875 54.20652 38798 ft 492 kts 31°
2026-05-05 13:56 16.45644 54.24479 38799 ft 492 kts 31°
2026-05-05 13:57 16.51413 54.28310 38799 ft 492 kts 31°
2026-05-05 13:57 16.57178 54.32141 38799 ft 491 kts 31°
2026-05-05 13:58 16.62946 54.35977 38798 ft 492 kts 31°
2026-05-05 13:58 16.68717 54.39816 38798 ft 492 kts 31°
2026-05-05 13:59 16.77370 54.45579 38799 ft 492 kts 31°
2026-05-05 14:00 16.85056 54.50703 38812 ft 492 kts 31°
2026-05-05 14:00 16.91759 54.55176 38821 ft 492 kts 31°
2026-05-05 14:01 16.97540 54.59034 38821 ft 493 kts 31°
2026-05-05 14:01 17.03335 54.62903 38821 ft 494 kts 31°
2026-05-05 14:02 17.09125 54.66774 38815 ft 494 kts 31°
2026-05-05 14:02 17.14918 54.70649 38815 ft 494 kts 31°
2026-05-05 14:03 17.20701 54.74521 38810 ft 494 kts 31°
2026-05-05 14:03 17.26490 54.78400 38808 ft 494 kts 31°
2026-05-05 14:04 17.32181 54.82437 38796 ft 495 kts 34°
2026-05-05 14:04 17.37701 54.86676 38793 ft 495 kts 35°
2026-05-05 14:05 17.43256 54.90939 38793 ft 495 kts 34°
2026-05-05 14:05 17.48833 54.95164 38776 ft 495 kts 34°
2026-05-05 14:06 17.54425 54.99376 38775 ft 495 kts 34°
2026-05-05 14:06 17.60018 55.03589 38765 ft 495 kts 34°
2026-05-05 14:07 17.65605 55.07803 38763 ft 495 kts 34°
2026-05-05 14:07 17.71202 55.12029 38763 ft 495 kts 34°
2026-05-05 14:08 17.76790 55.16253 38754 ft 495 kts 34°
2026-05-05 14:08 17.82343 55.20459 38754 ft 495 kts 34°
2026-05-05 14:09 17.87933 55.24690 38746 ft 495 kts 34°
2026-05-05 14:09 17.93517 55.28919 38756 ft 495 kts 35°
2026-05-05 14:10 17.99097 55.33150 38749 ft 495 kts 35°
2026-05-05 14:10 18.04681 55.37388 38752 ft 495 kts 34°
2026-05-05 14:11 18.10274 55.41620 38752 ft 495 kts 34°
2026-05-05 14:11 18.16024 55.45592 38744 ft 494 kts 31°
2026-05-05 14:12 18.21829 55.49464 38750 ft 494 kts 31°
2026-05-05 14:12 18.27615 55.53372 38740 ft 494 kts 31°
2026-05-05 14:13 18.33385 55.57315 38742 ft 494 kts 32°
2026-05-05 14:13 18.39105 55.61251 38744 ft 494 kts 32°
2026-05-05 14:14 18.44874 55.65213 38746 ft 494 kts 32°
2026-05-05 14:14 18.50634 55.69170 38748 ft 494 kts 31°
2026-05-05 14:15 18.56389 55.73127 38744 ft 494 kts 32°
2026-05-05 14:15 18.62151 55.77093 38743 ft 494 kts 31°
2026-05-05 14:16 18.67908 55.81058 38741 ft 494 kts 32°
2026-05-05 14:16 18.73663 55.85026 38741 ft 494 kts 32°
2026-05-05 14:17 18.79415 55.88995 38735 ft 494 kts 32°
2026-05-05 14:17 18.85169 55.92969 38735 ft 494 kts 32°
2026-05-05 14:18 18.91123 55.96548 38738 ft 492 kts 18°
2026-05-05 14:18 18.94423 55.97423 38736 ft 488 kts
2026-05-05 14:18 18.97802 55.97453 38737 ft 486 kts 352°
2026-05-05 14:19 19.01033 55.96625 38737 ft 484 kts 337°
2026-05-05 14:19 19.03999 55.94968 38733 ft 482 kts 323°
2026-05-05 14:19 19.06481 55.92599 38733 ft 481 kts 309°
2026-05-05 14:19 19.08337 55.89671 38733 ft 480 kts 296°
2026-05-05 14:20 19.09470 55.86352 38727 ft 481 kts 282°
2026-05-05 14:20 19.09815 55.82845 38731 ft 482 kts 268°
2026-05-05 14:20 19.09352 55.79340 38730 ft 483 kts 255°
2026-05-05 14:20 19.08103 55.76050 38728 ft 484 kts 241°
2026-05-05 14:21 19.06137 55.73164 38734 ft 485 kts 227°
2026-05-05 14:21 19.03950 55.70434 38731 ft 487 kts 233°
2026-05-05 14:21 19.00562 55.64273 38727 ft 486 kts 249°
2026-05-05 14:22 18.99185 55.57338 38724 ft 484 kts 269°
2026-05-05 14:22 19.00111 55.50332 38724 ft 484 kts 288°
2026-05-05 14:23 19.02528 55.45017 38724 ft 484 kts 304°
2026-05-05 14:23 19.07011 55.39704 38727 ft 486 kts 316°
2026-05-05 14:24 19.12164 55.35060 38725 ft 488 kts 322°
2026-05-05 14:24 19.17753 55.30978 38725 ft 488 kts 328°
2026-05-05 14:25 19.23710 55.27513 38723 ft 489 kts 333°
2026-05-05 14:25 19.29978 55.24701 38725 ft 490 kts 339°
2026-05-05 14:26 19.36462 55.22580 38724 ft 491 kts 345°
2026-05-05 14:26 19.43178 55.21151 38719 ft 493 kts 351°
2026-05-05 14:27 19.50009 55.20450 38718 ft 494 kts 356°
2026-05-05 14:27 19.56886 55.20489 38717 ft 494 kts
2026-05-05 14:28 19.63730 55.21269 38719 ft 496 kts
2026-05-05 14:28 19.70493 55.22790 38717 ft 497 kts 14°
2026-05-05 14:29 19.77089 55.25036 38716 ft 498 kts 20°
2026-05-05 14:29 19.83403 55.27966 38716 ft 499 kts 26°
2026-05-05 14:30 19.89448 55.31587 38719 ft 499 kts 32°
2026-05-05 14:30 19.95131 55.35855 38718 ft 501 kts 38°
2026-05-05 14:31 20.00396 55.40736 38716 ft 502 kts 44°
2026-05-05 14:31 20.05168 55.46164 38717 ft 503 kts 50°
2026-05-05 14:32 20.09397 55.52084 38720 ft 503 kts 56°
2026-05-05 14:32 20.13039 55.58433 38722 ft 502 kts 62°
2026-05-05 14:33 20.16054 55.65146 38717 ft 502 kts 68°
2026-05-05 14:33 20.18411 55.72148 38719 ft 502 kts 73°
2026-05-05 14:34 20.20084 55.79365 38717 ft 502 kts 79°
2026-05-05 14:34 20.21055 55.86684 38726 ft 502 kts 85°
2026-05-05 14:35 20.21325 55.94108 38727 ft 502 kts 91°
2026-05-05 14:35 20.21319 56.01528 38725 ft 502 kts 84°
2026-05-05 14:36 20.23096 56.08681 38723 ft 501 kts 65°
2026-05-05 14:36 20.26987 56.14802 38727 ft 500 kts 45°
2026-05-05 14:37 20.32531 56.19133 38719 ft 498 kts 25°
2026-05-05 14:37 20.39120 56.21257 38721 ft 496 kts
2026-05-05 14:38 20.45968 56.20944 38724 ft 493 kts 346°
2026-05-05 14:38 20.52294 56.18270 38727 ft 489 kts 327°
2026-05-05 14:39 20.57416 56.13580 38727 ft 486 kts 308°
2026-05-05 14:39 20.61071 56.07542 38723 ft 484 kts 297°
2026-05-05 14:40 20.64076 56.01115 38731 ft 483 kts 294°
2026-05-05 14:40 20.67009 55.94663 38722 ft 483 kts 295°
2026-05-05 14:41 20.69990 55.88285 38727 ft 483 kts 295°
2026-05-05 14:41 20.73033 55.81885 38727 ft 483 kts 295°
2026-05-05 14:42 20.76087 55.75481 38724 ft 483 kts 295°
2026-05-05 14:42 20.79133 55.69080 38720 ft 483 kts 295°
2026-05-05 14:43 20.82177 55.62670 38718 ft 482 kts 295°
2026-05-05 14:43 20.85205 55.56285 38725 ft 481 kts 295°
2026-05-05 14:44 20.88230 55.49896 38721 ft 481 kts 295°
2026-05-05 14:44 20.91230 55.43554 38721 ft 480 kts 295°
2026-05-05 14:45 20.94249 55.37165 38722 ft 480 kts 295°
2026-05-05 14:45 20.97258 55.30788 38720 ft 481 kts 295°
2026-05-05 14:46 21.00269 55.24402 38722 ft 480 kts 295°
2026-05-05 14:46 21.03267 55.18034 38722 ft 478 kts 295°
2026-05-05 14:47 21.06257 55.11676 38716 ft 478 kts 295°
2026-05-05 14:47 21.09245 55.05314 38712 ft 478 kts 295°
2026-05-05 14:48 21.12231 54.98946 38716 ft 478 kts 295°
2026-05-05 14:48 21.15216 54.92576 38719 ft 478 kts 295°
2026-05-05 14:49 21.18180 54.86243 38719 ft 479 kts 295°
2026-05-05 14:49 21.21161 54.79866 38717 ft 479 kts 295°
2026-05-05 14:50 21.24144 54.73478 38712 ft 479 kts 295°
2026-05-05 14:50 21.27124 54.67087 38713 ft 479 kts 295°
2026-05-05 14:51 21.30104 54.60688 38708 ft 479 kts 295°
2026-05-05 14:51 21.33082 54.54285 38711 ft 479 kts 295°
2026-05-05 14:52 21.36036 54.47929 38708 ft 479 kts 295°
2026-05-05 14:52 21.39002 54.41538 38708 ft 478 kts 294°
2026-05-05 14:53 21.41970 54.35134 38714 ft 478 kts 294°
2026-05-05 14:53 21.44928 54.28743 38711 ft 478 kts 294°
2026-05-05 14:54 21.47887 54.22342 38712 ft 478 kts 294°
2026-05-05 14:54 21.50845 54.15935 38710 ft 479 kts 294°
2026-05-05 14:55 21.53781 54.09571 38714 ft 478 kts 294°
2026-05-05 14:55 21.56725 54.03181 38712 ft 477 kts 294°
2026-05-05 14:56 21.59662 53.96797 38720 ft 477 kts 294°
2026-05-05 14:56 21.62596 53.90410 38717 ft 477 kts 294°
2026-05-05 14:57 21.65531 53.84016 38709 ft 477 kts 294°
2026-05-05 14:57 21.68462 53.77622 38713 ft 477 kts 294°
2026-05-05 14:58 21.71390 53.71228 38718 ft 476 kts 294°
2026-05-05 14:58 21.74308 53.64846 38711 ft 475 kts 294°
2026-05-05 14:59 21.77220 53.58466 38719 ft 475 kts 294°
2026-05-05 14:59 21.80128 53.52091 38708 ft 475 kts 294°
2026-05-05 15:00 21.82546 53.46784 38714 ft 475 kts 294°
2026-05-05 15:00 21.85921 53.39366 38720 ft 475 kts 294°
2026-05-05 15:01 21.88824 53.32978 38713 ft 474 kts 294°
2026-05-05 15:01 21.91719 53.26600 38713 ft 474 kts 294°
2026-05-05 15:02 21.94610 53.20219 38713 ft 474 kts 293°
2026-05-05 15:02 21.97501 53.13834 38713 ft 474 kts 293°
2026-05-05 15:03 22.00390 53.07444 38714 ft 474 kts 293°
2026-05-05 15:03 22.03275 53.01055 38713 ft 474 kts 293°
2026-05-05 15:04 22.06139 52.94704 38716 ft 474 kts 293°
2026-05-05 15:04 22.09016 52.88317 38716 ft 473 kts 293°
2026-05-05 15:05 22.13328 52.78727 38719 ft 473 kts 293°
2026-05-05 15:06 22.16200 52.72329 38721 ft 473 kts 293°
2026-05-05 15:06 22.19068 52.65933 38722 ft 474 kts 293°
2026-05-05 15:07 22.21934 52.59533 38722 ft 472 kts 293°
2026-05-05 15:07 22.24786 52.53156 38722 ft 471 kts 293°
2026-05-05 15:08 22.27634 52.46781 38720 ft 471 kts 292°
2026-05-05 15:08 22.30478 52.40406 38727 ft 471 kts 292°
2026-05-05 15:09 22.33299 52.34073 38730 ft 471 kts 292°
2026-05-05 15:09 22.36139 52.27689 38742 ft 471 kts 292°
2026-05-05 15:10 22.38973 52.21314 38730 ft 470 kts 292°
2026-05-05 15:10 22.41800 52.14944 38730 ft 470 kts 292°
2026-05-05 15:11 22.44605 52.08614 38733 ft 470 kts 292°
2026-05-05 15:11 22.47426 52.02243 38732 ft 470 kts 292°
2026-05-05 15:12 22.50247 51.95860 38732 ft 470 kts 292°
2026-05-05 15:12 22.53065 51.89478 38735 ft 470 kts 292°
2026-05-05 15:13 22.55877 51.83103 38736 ft 469 kts 292°
2026-05-05 15:13 22.58211 51.77801 38733 ft 469 kts 292°
2026-05-05 15:14 22.61477 51.70375 38738 ft 470 kts 292°
2026-05-05 15:14 22.64286 51.63981 38738 ft 470 kts 292°
2026-05-05 15:15 22.66634 51.58629 38741 ft 470 kts 292°
2026-05-05 15:15 22.69436 51.52235 38742 ft 470 kts 292°
2026-05-05 15:16 22.72215 51.45884 38739 ft 469 kts 292°
2026-05-05 15:16 22.75009 51.39490 38740 ft 469 kts 292°
2026-05-05 15:17 22.77798 51.33101 38735 ft 469 kts 292°
2026-05-05 15:17 22.80588 51.26699 38738 ft 469 kts 292°
2026-05-05 15:18 22.83905 51.20583 38740 ft 475 kts 305°
2026-05-05 15:18 22.88771 51.15667 38742 ft 485 kts 323°
2026-05-05 15:19 22.95011 51.12742 38737 ft 498 kts 346°
2026-05-05 15:19 22.98492 51.12491 38745 ft 505 kts 359°
2026-05-05 15:19 23.01955 51.12870 38736 ft 509 kts
2026-05-05 15:20 23.08972 51.14053 38739 ft 511 kts
2026-05-05 15:20 23.16026 51.14946 38737 ft 510 kts
2026-05-05 15:21 23.23098 51.15542 38741 ft 509 kts
2026-05-05 15:21 23.30170 51.16040 38744 ft 509 kts 360°
2026-05-05 15:22 23.37249 51.16537 38744 ft 510 kts 360°
2026-05-05 15:22 23.44334 51.17050 38743 ft 510 kts 360°
2026-05-05 15:23 23.51418 51.17570 38746 ft 510 kts 360°
2026-05-05 15:23 23.58436 51.18281 38741 ft 506 kts
2026-05-05 15:23 23.61836 51.19143 38277 ft 497 kts 11°
2026-05-05 15:24 23.65143 51.20202 37045 ft 496 kts 14°
2026-05-05 15:24 23.68442 51.21391 35614 ft 501 kts 15°
2026-05-05 15:24 23.71749 51.22651 34218 ft 505 kts 15°
2026-05-05 15:24 23.75074 51.23937 32690 ft 510 kts 15°
2026-05-05 15:25 23.78460 51.25238 31516 ft 520 kts 15°
2026-05-05 15:25 23.81879 51.26542 30752 ft 520 kts 15°
2026-05-05 15:25 23.85289 51.27833 30142 ft 516 kts 15°
2026-05-05 15:25 23.88675 51.29108 29503 ft 513 kts 15°
2026-05-05 15:26 23.92034 51.30368 28889 ft 505 kts 15°
2026-05-05 15:26 23.95300 51.31593 27841 ft 491 kts 16°
2026-05-05 15:26 23.98468 51.32779 26617 ft 483 kts 16°
2026-05-05 15:26 24.01619 51.33957 25527 ft 473 kts 16°
2026-05-05 15:27 24.04738 51.35124 24454 ft 462 kts 17°
2026-05-05 15:27 24.07715 51.36237 23432 ft 452 kts 17°
2026-05-05 15:27 24.10661 51.37340 22203 ft 443 kts 17°
2026-05-05 15:27 24.13557 51.38426 20937 ft 435 kts 17°
2026-05-05 15:28 24.16397 51.39491 19728 ft 428 kts 17°
2026-05-05 15:28 24.19193 51.40541 18569 ft 420 kts 17°
2026-05-05 15:28 24.21931 51.41569 17364 ft 413 kts 17°
2026-05-05 15:28 24.24618 51.42579 16185 ft 403 kts 17°
2026-05-05 15:29 24.27234 51.43564 15072 ft 393 kts 17°
2026-05-05 15:29 24.29788 51.44522 13989 ft 383 kts 17°
2026-05-05 15:29 24.32278 51.45458 12845 ft 374 kts 17°
2026-05-05 15:29 24.34716 51.46374 11596 ft 368 kts 17°
2026-05-05 15:30 24.37108 51.47274 10727 ft 354 kts 17°
2026-05-05 15:30 24.39354 51.48123 10303 ft 329 kts 17°
2026-05-05 15:30 24.41439 51.48912 9966 ft 305 kts 17°
2026-05-05 15:30 24.43379 51.49647 9587 ft 287 kts 17°
2026-05-05 15:31 24.45251 51.50351 9121 ft 282 kts 17°
2026-05-05 15:31 24.47089 51.51041 8862 ft 277 kts 17°
2026-05-05 15:31 24.48908 51.51723 8619 ft 276 kts 17°
2026-05-05 15:31 24.50696 51.52394 8387 ft 275 kts 17°
2026-05-05 15:32 24.52526 51.53087 8143 ft 274 kts 17°
2026-05-05 15:32 24.54302 51.53756 7904 ft 273 kts 17°
2026-05-05 15:32 24.56100 51.54433 7662 ft 272 kts 17°
2026-05-05 15:32 24.57892 51.55108 7435 ft 272 kts 17°
2026-05-05 15:33 24.59677 51.55780 7206 ft 271 kts 17°
2026-05-05 15:33 24.61453 51.56450 6970 ft 269 kts 17°
2026-05-05 15:33 24.63222 51.57118 6740 ft 268 kts 18°
2026-05-05 15:33 24.64985 51.57783 6517 ft 267 kts 18°
2026-05-05 15:34 24.66734 51.58444 6288 ft 265 kts 18°
2026-05-05 15:34 24.68475 51.59103 6050 ft 264 kts 18°
2026-05-05 15:34 24.70213 51.59762 5818 ft 264 kts 18°
2026-05-05 15:34 24.71950 51.60420 5686 ft 264 kts 18°
2026-05-05 15:35 24.73686 51.61076 5564 ft 264 kts 18°
2026-05-05 15:35 24.75423 51.61733 5451 ft 263 kts 18°
2026-05-05 15:35 24.77149 51.62387 5322 ft 262 kts 18°
2026-05-05 15:35 24.78870 51.63040 5210 ft 262 kts 19°
2026-05-05 15:36 24.80572 51.63685 5100 ft 262 kts 19°
2026-05-05 15:36 24.82294 51.64337 4976 ft 261 kts 19°
2026-05-05 15:36 24.84008 51.64986 4872 ft 260 kts 19°
2026-05-05 15:36 24.85720 51.65635 4750 ft 260 kts 19°
2026-05-05 15:37 24.87434 51.66285 4634 ft 260 kts 19°
2026-05-05 15:37 24.89120 51.66925 4530 ft 260 kts 19°
2026-05-05 15:37 24.90828 51.67574 4400 ft 259 kts 19°
2026-05-05 15:37 24.92531 51.68221 4285 ft 259 kts 19°
2026-05-05 15:38 24.94232 51.68868 4165 ft 258 kts 19°
2026-05-05 15:38 24.95927 51.69512 4047 ft 258 kts 19°
2026-05-05 15:38 24.97620 51.70156 3932 ft 257 kts 19°
2026-05-05 15:38 24.99313 51.70800 3817 ft 258 kts 19°
2026-05-05 15:39 25.01009 51.71445 3697 ft 258 kts 19°
2026-05-05 15:39 25.02640 51.72235 3565 ft 257 kts 37°
2026-05-05 15:39 25.03713 51.73782 3476 ft 256 kts 65°
2026-05-05 15:39 25.04499 51.75546 3334 ft 257 kts 56°
2026-05-05 15:40 25.05814 51.76851 3232 ft 256 kts 27°
2026-05-05 15:40 25.07517 51.77323 3119 ft 251 kts
2026-05-05 15:40 25.09203 51.77164 3000 ft 238 kts 343°
2026-05-05 15:40 25.10595 51.76269 2913 ft 228 kts 322°
2026-05-05 15:41 25.11562 51.74969 2825 ft 219 kts 298°
2026-05-05 15:41 25.12147 51.73423 2721 ft 219 kts 291°
2026-05-05 15:41 25.12656 51.71831 2604 ft 221 kts 291°
2026-05-05 15:41 25.13151 51.70224 2514 ft 221 kts 291°
2026-05-05 15:42 25.13705 51.68647 2381 ft 220 kts 303°
2026-05-05 15:42 25.14755 51.67451 2191 ft 216 kts 324°
2026-05-05 15:42 25.16083 51.66794 1942 ft 203 kts 348°
2026-05-05 15:42 25.17383 51.66349 1679 ft 188 kts 340°
2026-05-05 15:43 25.18535 51.65786 1435 ft 173 kts 338°
2026-05-05 15:43 25.19607 51.65293 1226 ft 162 kts 342°
2026-05-05 15:43 25.20649 51.64842 1026 ft 161 kts 340°
2026-05-05 15:43 25.21659 51.64391 840 ft 154 kts 341°
2026-05-05 15:44 25.22614 51.63969 662 ft 142 kts 340°
2026-05-05 15:44 25.23507 51.63574 480 ft 136 kts 339°
2026-05-05 15:44 25.24379 51.63188 311 ft 134 kts 340°
2026-05-05 15:44 25.25243 51.62813 120 ft 133 kts 341°
2026-05-05 15:45 25.26101 51.62442 35 ft 128 kts 340°
2026-05-05 15:45 25.26777 51.62138 29 ft 61 kts 338°
2026-05-05 15:45 25.26947 51.62013 29 ft 15 kts 316°
2026-05-05 15:45 25.26993 51.61953 30 ft 11 kts 308°
2026-05-05 15:46 25.27042 51.61885 32 ft 12 kts 308°
2026-05-05 15:46 25.27096 51.61804 34 ft 14 kts 297°
2026-05-05 15:46 25.27084 51.61697 35 ft 16 kts 252°
2026-05-05 15:46 25.27042 51.61575 36 ft 16 kts 247°
2026-05-05 15:47 25.27051 51.61511 36 ft 9 kts 314°
2026-05-05 15:47 25.27084 51.61487 36 ft 6 kts 333°
2026-05-05 15:47 25.27100 51.61479 36 ft 0 kts 336°